DW6860 Weather Reports


Display with metric or nautical units.
time (UTC)temp
F
wind
direction
speed
MPH
gust
MPH
rain 1hr
in
rain 24hr
in
rain mn
in
humidity
%
barometer
mb
20260509053345 48 44 1.0 3.0 0.00 0.00 0.00 87 1018.1
20260509053034 48 48 1.0 3.0 0.00 0.00 0.00 87 1018.1
20260509052835 48 52 1.0 3.0 0.00 0.00 0.00 87 1018.0
20260509052513 48 37 1.0 3.0 0.00 0.00 0.00 87 1018.1
20260509052338 48 29 1.0 3.0 0.00 0.00 0.00 87 1018.0
20260509052250 48 28 1.0 3.0 0.00 0.00 0.00 86 1017.9
20260509052015 48 28 2.0 4.0 0.00 0.00 0.00 87 1018.0
20260509051942 47 29 2.0 4.0 0.00 0.00 0.00 87 1017.9
20260509051539 48 81 1.0 2.0 0.00 0.00 0.00 86 1017.9
20260509051513 48 27 2.0 4.0 0.00 0.00 0.00 87 1018.0
20260509051412 48 29 2.0 4.0 0.00 0.00 0.00 87 1017.8
20260509051015 48 43 1.0 4.0 0.00 0.00 0.00 87 1018.0
20260509050513 48 91 1.0 3.0 0.00 0.00 0.00 86 1018.0
20260509050124 47 141 0.0 2.0 0.00 0.00 0.00 86 1017.9
20260509050013 48 141 0.0 2.0 0.00 0.00 0.00 86 1017.9
20260509045513 48 141 0.0 2.0 0.00 0.00 0.00 86 1017.9
20260509045355 47 141 0.0 1.0 0.00 0.00 0.00 86 1017.8
20260509045013 48 141 0.0 1.0 0.00 0.00 0.00 85 1017.7
20260509044852 47 141 0.0 1.0 0.00 0.00 0.00 85 1017.7
20260509044512 48 141 0.0 1.0 0.00 0.00 0.00 85 1017.7
20260509044438 48 141 0.0 1.0 0.00 0.00 0.00 85 1017.7
20260509044354 48 141 0.0 1.0 0.00 0.00 0.00 85 1017.7
20260509044015 48 0 0.0 1.0 0.00 0.00 0.00 85 1017.7
20260509043512 48 141 0.0 1.0 0.00 0.00 0.00 85 1017.7
20260509043435 48 141 0.0 2.0 0.00 0.00 0.00 85 1017.7
20260509043357 48 141 0.0 2.0 0.00 0.00 0.00 85 1017.7
20260509043014 48 141 0.0 2.0 0.00 0.00 0.00 85 1017.7
20260509042534 48 141 0.0 2.0 0.00 0.00 0.00 85 1017.7
20260509042329 48 141 0.0 1.0 0.00 0.00 0.00 85 1017.7
20260509042014 48 141 0.0 1.0 0.00 0.00 0.00 85 1017.7
20260509041826 48 141 0.0 1.0 0.00 0.00 0.00 85 1017.5
20260509041513 48 141 0.0 1.0 0.00 0.00 0.00 85 1017.6
20260509041439 48 141 0.0 2.0 0.00 0.00 0.00 85 1017.6
20260509041356 48 141 0.0 1.0 0.00 0.00 0.00 85 1017.6
20260509041014 48 141 0.0 2.0 0.00 0.00 0.00 85 1017.7
20260509040513 48 141 0.0 2.0 0.00 0.00 0.00 84 1017.7
20260509040324 48 141 0.0 2.0 0.00 0.00 0.00 85 1017.6
20260509040013 48 141 0.0 1.0 0.00 0.00 0.00 84 1017.6
20260509035817 48 141 0.0 1.0 0.00 0.00 0.00 84 1017.6
20260509035512 48 141 0.0 2.0 0.00 0.00 0.00 85 1017.6
20260509035313 48 141 0.0 2.0 0.00 0.00 0.00 85 1017.6
20260509035013 48 141 0.0 2.0 0.00 0.00 0.00 84 1017.6
20260509034927 48 141 0.0 1.0 0.00 0.00 0.00 84 1017.5
20260509034839 48 141 0.0 2.0 0.00 0.00 0.00 84 1017.5
20260509034513 48 141 0.0 2.0 0.00 0.00 0.00 84 1017.6
20260509034013 48 141 0.0 1.0 0.00 0.00 0.00 84 1017.5
20260509033817 48 141 0.0 1.0 0.00 0.00 0.00 84 1017.5
20260509033513 48 141 0.0 1.0 0.00 0.00 0.00 84 1017.5
20260509033321 49 141 0.0 1.0 0.00 0.00 0.00 84 1017.6
20260509033034 48 141 0.0 1.0 0.00 0.00 0.00 84 1017.6
20260509032810 49 141 0.0 2.0 0.00 0.00 0.00 84 1017.6
20260509032513 48 141 0.0 2.0 0.00 0.00 0.00 84 1017.6
20260509032311 49 141 0.0 2.0 0.00 0.00 0.00 84 1017.6
20260509032041 49 141 0.0 1.0 0.00 0.00 0.00 84 1017.7
20260509032013 48 142 0.0 2.0 0.00 0.00 0.00 84 1017.6
20260509031841 49 141 0.0 1.0 0.00 0.00 0.00 84 1017.7
20260509031514 48 145 0.0 1.0 0.00 0.00 0.00 84 1017.7
20260509031014 49 92 0.0 2.0 0.00 0.00 0.00 83 1017.8
20260509030808 49 92 0.0 2.0 0.00 0.00 0.00 83 1017.6
20260509030534 48 92 0.0 2.0 0.00 0.00 0.00 83 1017.7
20260509030316 49 92 0.0 2.0 0.00 0.00 0.00 83 1017.7
20260509030034 49 92 0.0 2.0 0.00 0.00 0.00 83 1017.8
20260509025809 49 92 0.0 2.0 0.00 0.00 0.00 83 1017.8
20260509025512 48 92 0.0 1.0 0.00 0.00 0.00 82 1017.8
20260509025250 49 92 0.0 1.0 0.00 0.00 0.00 82 1017.7
20260509025035 49 92 0.0 1.0 0.00 0.00 0.00 82 1017.8
20260509024754 49 92 0.0 1.0 0.00 0.00 0.00 82 1017.8
20260509024512 49 92 0.0 1.0 0.00 0.00 0.00 82 1017.7
20260509024242 49 92 0.0 1.0 0.00 0.00 0.00 82 1017.8
20260509024013 49 92 0.0 1.0 0.00 0.00 0.00 82 1017.8
20260509023741 49 92 0.0 1.0 0.00 0.00 0.00 82 1017.8
20260509023545 49 92 0.0 1.0 0.00 0.00 0.00 81 1017.7
20260509023514 49 92 0.0 1.0 0.00 0.00 0.00 82 1017.8
20260509023334 49 92 0.0 2.0 0.00 0.00 0.00 81 1017.7
20260509023013 49 99 0.0 2.0 0.00 0.00 0.00 81 1017.8
20260509022513 49 99 0.0 2.0 0.00 0.00 0.00 81 1017.7
20260509022324 49 79 0.0 0.0 0.00 0.00 0.00 80 1017.7
20260509022244 49 92 0.0 2.0 0.00 0.00 0.00 81 1017.7
20260509022034 49 79 0.0 1.0 0.00 0.00 0.00 81 1017.7
20260509021749 49 79 0.0 1.0 0.00 0.00 0.00 81 1017.7
20260509021514 49 0 0.0 0.0 0.00 0.00 0.00 81 1017.8
20260509021013 49 0 0.0 0.0 0.00 0.00 0.00 80 1017.8
20260509020745 49 79 0.0 0.0 0.00 0.00 0.00 80 1017.7
20260509020513 49 0 0.0 0.0 0.00 0.00 0.00 80 1017.7
20260509020236 49 79 0.0 0.0 0.00 0.00 0.00 80 1017.7
20260509020014 49 79 0.0 1.0 0.00 0.00 0.00 80 1017.7
20260509015942 50 79 0.0 1.0 0.00 0.00 0.00 80 1017.8
20260509015830 49 79 0.0 1.0 0.00 0.00 0.00 80 1017.8
20260509015513 50 79 0.0 1.0 0.00 0.00 0.00 80 1017.8
20260509015034 50 79 0.0 1.0 0.00 0.00 0.00 80 1017.8
20260509014727 50 79 0.0 1.0 0.00 0.00 0.00 80 1017.7
20260509014533 50 79 0.0 1.0 0.00 0.00 0.00 80 1017.8
20260509014231 50 79 0.0 1.0 0.00 0.00 0.00 80 1017.8
20260509014013 50 79 0.0 1.0 0.00 0.00 0.00 79 1017.8
20260509013733 50 79 0.0 1.0 0.00 0.00 0.00 79 1017.8
20260509013513 50 79 0.0 1.0 0.00 0.00 0.00 79 1017.8
20260509013230 50 79 0.0 1.0 0.00 0.00 0.00 79 1017.8
20260509013013 50 79 0.0 1.0 0.00 0.00 0.00 79 1017.9
20260509012726 50 79 0.0 1.0 0.00 0.00 0.00 79 1017.9
20260509012512 50 79 0.0 1.0 0.00 0.00 0.00 79 1018.1
20260509012224 50 79 0.0 0.0 0.00 0.00 0.00 79 1017.9
20260509012013 50 0 0.0 0.0 0.00 0.00 0.00 79 1018.1
20260509011718 50 79 0.0 0.0 0.00 0.00 0.00 79 1018.0
20260509011513 50 79 0.0 1.0 0.00 0.00 0.00 79 1018.1
20260509011214 51 79 0.0 1.0 0.00 0.00 0.00 79 1018.0
20260509011013 51 79 0.0 1.0 0.00 0.00 0.00 79 1018.1
20260509010844 51 79 0.0 1.0 0.00 0.00 0.00 78 1018.0
20260509010748 51 79 0.0 1.0 0.00 0.00 0.00 79 1018.0
20260509010513 51 79 0.0 1.0 0.00 0.00 0.00 78 1018.1
20260509010013 51 79 0.0 1.0 0.00 0.00 0.00 78 1018.0
20260509005707 51 79 0.0 1.0 0.00 0.00 0.00 78 1017.9
20260509005513 51 0 0.0 0.0 0.00 0.00 0.00 78 1018.1
20260509005210 51 79 0.0 0.0 0.00 0.00 0.00 78 1018.1
20260509005014 51 0 0.0 0.0 0.00 0.00 0.00 78 1018.2
20260509004703 51 79 0.0 0.0 0.00 0.00 0.00 78 1018.0
20260509004533 51 0 0.0 0.0 0.00 0.00 0.00 78 1018.1
20260509004159 51 79 0.0 0.0 0.00 0.00 0.00 78 1018.0
20260509004013 51 0 0.0 0.0 0.00 0.00 0.00 78 1018.1
20260509003653 51 79 0.0 0.0 0.00 0.00 0.00 78 1018.0
20260509003513 51 0 0.0 0.0 0.00 0.00 0.00 78 1018.1
20260509003225 51 79 0.0 1.0 0.00 0.00 0.00 78 1018.0
20260509003150 51 79 0.0 0.0 0.00 0.00 0.00 78 1018.0
20260509003035 51 0 0.0 0.0 0.00 0.00 0.00 78 1018.1
20260509002513 51 79 0.0 1.0 0.00 0.00 0.00 78 1018.1
20260509002137 51 79 0.0 1.0 0.00 0.00 0.00 78 1018.0
20260509002034 51 79 0.0 1.0 0.00 0.00 0.00 78 1018.1
20260509001634 51 79 0.0 1.0 0.00 0.00 0.00 78 1018.0
20260509001513 51 79 0.0 1.0 0.00 0.00 0.00 78 1018.0
20260509001123 51 79 0.0 2.0 0.00 0.00 0.00 78 1018.0
20260509001013 51 90 0.0 2.0 0.00 0.00 0.00 78 1018.1
20260509000837 51 137 0.0 2.0 0.00 0.00 0.00 78 1018.1
20260509000814 51 149 0.0 2.0 0.00 0.00 0.00 78 1018.0
20260509000713 51 79 0.0 2.0 0.00 0.00 0.00 78 1017.9
20260509000513 51 112 0.0 2.0 0.00 0.00 0.00 78 1018.1
20260509000014 51 132 0.0 2.0 0.00 0.00 0.00 78 1018.0
20260508235512 51 150 0.0 2.0 0.00 0.00 0.00 78 1018.1
20260508235111 51 234 0.0 3.0 0.00 0.00 0.00 78 1018.0
20260508235013 51 126 0.0 3.0 0.00 0.00 0.00 78 1018.1
20260508234901 51 42 0.0 4.0 0.00 0.00 0.00 77 1017.9
20260508234850 51 121 0.0 1.0 0.00 0.00 0.00 76 1017.9
20260508234717 51 171 0.0 4.0 0.00 0.00 0.00 77 1018.0
20260508234533 51 115 0.0 4.0 0.00 0.00 0.00 77 1018.1
20260508234013 51 119 0.0 4.0 0.00 0.00 0.00 77 1018.0
20260508233514 51 105 0.0 2.0 0.00 0.00 0.00 77 1018.0
20260508233106 51 122 0.0 2.0 0.00 0.00 0.00 76 1017.9
20260508233013 51 74 0.0 2.0 0.00 0.00 0.00 76 1018.1
20260508232748 51 46 0.0 0.0 0.00 0.00 0.00 76 1018.0
20260508232631 51 90 0.0 2.0 0.00 0.00 0.00 76 1017.9
20260508232514 51 46 0.0 2.0 0.00 0.00 0.00 76 1018.0
20260508232014 52 0 0.0 0.0 0.00 0.00 0.00 76 1018.0
20260508231557 52 46 0.0 0.0 0.00 0.00 0.00 76 1018.0
20260508231533 52 0 0.0 0.0 0.00 0.00 0.00 76 1018.1
20260508231157 52 46 0.0 0.0 0.00 0.00 0.00 75 1018.0
20260508231118 52 46 0.0 0.0 0.00 0.00 0.00 76 1017.9
20260508231035 52 0 0.0 0.0 0.00 0.00 0.00 76 1018.0
20260508230513 52 0 0.0 0.0 0.00 0.00 0.00 75 1018.0
20260508230116 52 46 0.0 0.0 0.00 0.00 0.00 75 1018.0
20260508230013 52 0 0.0 0.0 0.00 0.00 0.00 75 1018.0
20260508225539 52 46 0.0 0.0 0.00 0.00 0.00 75 1018.0
20260508225513 52 0 0.0 0.0 0.00 0.00 0.00 75 1018.0
20260508225048 52 46 0.0 0.0 0.00 0.00 0.00 74 1018.0
20260508225034 52 0 0.0 0.0 0.00 0.00 0.00 74 1018.1
20260508224540 53 46 0.0 0.0 0.00 0.00 0.00 74 1018.1
20260508224512 52 0 0.0 0.0 0.00 0.00 0.00 74 1018.1
20260508224103 53 46 0.0 0.0 0.00 0.00 0.00 73 1018.0
20260508224013 53 0 0.0 0.0 0.00 0.00 0.00 73 1018.1
20260508223543 53 46 0.0 0.0 0.00 0.00 0.00 73 1018.1
20260508223534 53 0 0.0 0.0 0.00 0.00 0.00 73 1018.1
20260508223239 53 46 0.0 0.0 0.00 0.00 0.00 72 1018.0
20260508223119 53 46 0.0 0.0 0.00 0.00 0.00 72 1018.0
20260508223013 53 0 0.0 0.0 0.00 0.00 0.00 72 1018.1
20260508222534 53 0 0.0 0.0 0.00 0.00 0.00 72 1018.1
20260508222021 53 46 0.0 0.0 0.00 0.00 0.00 71 1018.0
20260508222013 54 0 0.0 0.0 0.00 0.00 0.00 71 1018.0
20260508221615 54 46 0.0 0.0 0.00 0.00 0.00 70 1017.9
20260508221532 54 46 0.0 0.0 0.00 0.00 0.00 71 1017.9
20260508221514 54 0 0.0 0.0 0.00 0.00 0.00 71 1018.0
20260508221036 54 0 0.0 0.0 0.00 0.00 0.00 70 1018.0
20260508220525 54 46 0.0 0.0 0.00 0.00 0.00 70 1017.9
20260508220512 54 0 0.0 0.0 0.00 0.00 0.00 70 1018.0
20260508220040 54 0 0.0 0.0 0.00 0.00 0.00 70 1018.0
20260508220010 54 46 0.0 0.0 0.00 0.00 0.00 70 1018.0
20260508215512 54 0 0.0 0.0 0.00 0.00 0.00 69 1018.0
20260508215502 54 46 0.0 0.0 0.00 0.00 0.00 69 1018.0
20260508215013 54 0 0.0 0.0 0.00 0.00 0.00 69 1018.1
20260508214950 55 46 0.0 0.0 0.00 0.00 0.00 69 1018.0
20260508214512 55 0 0.0 0.0 0.00 0.00 0.00 68 1018.1
20260508214447 55 46 0.0 0.0 0.00 0.00 0.00 68 1018.1
20260508214013 55 0 0.0 0.0 0.00 0.00 0.00 68 1018.1
20260508213958 55 46 0.0 0.0 0.00 0.00 0.00 68 1018.0
20260508213513 55 0 0.0 0.0 0.00 0.00 0.00 68 1018.1
20260508213450 55 46 0.0 0.0 0.00 0.00 0.00 67 1018.1
20260508213013 55 0 0.0 0.0 0.00 0.00 0.00 67 1018.1
20260508212943 55 46 0.0 0.0 0.00 0.00 0.00 67 1018.0
20260508212533 55 0 0.0 0.0 0.00 0.00 0.00 67 1018.1
20260508212444 56 46 0.0 0.0 0.00 0.00 0.00 67 1018.0
20260508212013 56 0 0.0 0.0 0.00 0.00 0.00 66 1018.0
20260508211926 56 46 0.0 0.0 0.00 0.00 0.00 66 1017.9
20260508211513 56 0 0.0 0.0 0.00 0.00 0.00 66 1018.0
20260508211419 56 46 0.0 0.0 0.00 0.00 0.00 66 1018.0
20260508211033 56 0 0.0 0.0 0.00 0.00 0.00 66 1018.1
20260508210906 56 46 0.0 0.0 0.00 0.00 0.00 65 1018.0
20260508210618 56 46 0.0 1.0 0.00 0.00 0.00 65 1017.8
20260508210512 56 0 0.0 0.0 0.00 0.00 0.00 65 1018.0
20260508210458 56 46 0.0 0.0 0.00 0.00 0.00 65 1017.9
20260508210013 56 46 0.0 1.0 0.00 0.00 0.00 65 1017.8
20260508205512 56 46 0.0 1.0 0.00 0.00 0.00 65 1017.9
20260508205415 56 46 0.0 1.0 0.00 0.00 0.00 65 1017.8
20260508205034 57 0 0.0 0.0 0.00 0.00 0.00 64 1017.9
20260508204920 57 46 0.0 0.0 0.00 0.00 0.00 64 1017.9
20260508204514 57 0 0.0 0.0 0.00 0.00 0.00 64 1018.0
20260508204427 58 46 0.0 1.0 0.00 0.00 0.00 61 1017.9
20260508204343 57 46 0.0 0.0 0.00 0.00 0.00 64 1018.0
20260508204033 57 46 0.0 0.0 0.00 0.00 0.00 63 1017.8
20260508204013 57 0 0.0 0.0 0.00 0.00 0.00 63 1017.9
20260508203522 58 46 0.0 0.0 0.00 0.00 0.00 62 1017.9
20260508203513 57 0 0.0 0.0 0.00 0.00 0.00 62 1018.0
20260508203225 58 46 0.0 1.0 0.00 0.00 0.00 61 1017.9
20260508203013 58 0 0.0 0.0 0.00 0.00 0.00 62 1017.9
20260508203005 58 46 0.0 0.0 0.00 0.00 0.00 62 1017.9
20260508202512 58 46 0.0 1.0 0.00 0.00 0.00 61 1018.0
20260508202013 58 46 0.0 1.0 0.00 0.00 0.00 61 1018.0
20260508201513 58 0 0.0 0.0 0.00 0.00 0.00 60 1017.9
20260508201323 58 46 0.0 0.0 0.00 0.00 0.00 60 1017.9
20260508201013 59 0 0.0 0.0 0.00 0.00 0.00 59 1018.0
20260508200829 59 46 0.0 0.0 0.00 0.00 0.00 59 1017.8
20260508200533 59 0 0.0 0.0 0.00 0.00 0.00 59 1017.9
20260508200310 59 46 0.0 0.0 0.00 0.00 0.00 58 1017.9
20260508200035 59 0 0.0 0.0 0.00 0.00 0.00 58 1017.8
20260508195810 59 46 0.0 0.0 0.00 0.00 0.00 58 1017.8
20260508195513 60 0 0.0 0.0 0.00 0.00 0.00 58 1017.8
20260508195313 60 46 0.0 0.0 0.00 0.00 0.00 57 1017.8
20260508195034 60 0 0.0 0.0 0.00 0.00 0.00 57 1017.8
20260508194802 60 46 0.0 1.0 0.00 0.00 0.00 57 1017.7
20260508194522 60 46 0.0 1.0 0.00 0.00 0.00 56 1017.8
20260508194513 60 46 0.0 1.0 0.00 0.00 0.00 56 1017.7
20260508194034 60 46 0.0 1.0 0.00 0.00 0.00 56 1017.7
20260508193733 60 46 0.0 1.0 0.00 0.00 0.00 55 1017.7
20260508193513 61 46 0.0 1.0 0.00 0.00 0.00 55 1017.7
20260508193500 61 46 0.0 1.0 0.00 0.00 0.00 55 1017.6
20260508193321 61 46 0.0 1.0 0.00 0.00 0.00 55 1017.6
20260508193012 61 46 0.0 1.0 0.00 0.00 0.00 55 1017.6
20260508192513 61 46 0.0 1.0 0.00 0.00 0.00 54 1017.6
20260508192243 61 46 0.0 1.0 0.00 0.00 0.00 54 1017.6
20260508192013 61 46 0.0 1.0 0.00 0.00 0.00 54 1017.5
20260508191730 61 46 0.0 1.0 0.00 0.00 0.00 54 1017.4
20260508191533 61 46 0.0 3.0 0.00 0.00 0.00 54 1017.4
20260508191222 62 46 0.0 3.0 0.00 0.00 0.00 54 1017.3
20260508191033 62 66 0.0 3.0 0.00 0.00 0.00 54 1017.4
20260508190717 62 46 0.0 3.0 0.00 0.00 0.00 54 1017.4
20260508190512 62 82 0.0 2.0 0.00 0.00 0.00 54 1017.4
20260508190221 62 103 0.0 2.0 0.00 0.00 0.00 54 1017.3
20260508190034 62 57 0.0 2.0 0.00 0.00 0.00 54 1017.3
20260508185713 62 66 1.0 4.0 0.00 0.00 0.00 55 1017.2
20260508185533 62 28 1.0 4.0 0.00 0.00 0.00 55 1017.2
20260508185213 62 24 1.0 4.0 0.00 0.00 0.00 55 1017.1
20260508185012 62 30 2.0 4.0 0.00 0.00 0.00 54 1017.2
20260508184711 62 24 2.0 4.0 0.00 0.00 0.00 55 1017.2
20260508184533 62 32 2.0 5.0 0.00 0.00 0.00 55 1017.1
20260508184218 63 46 2.0 5.0 0.00 0.00 0.00 55 1017.1
20260508184053 63 24 2.0 4.0 0.00 0.00 0.00 54 1017.0
20260508184041 63 25 1.0 4.0 0.00 0.00 0.00 54 1017.1
20260508184012 63 27 2.0 5.0 0.00 0.00 0.00 55 1017.1
20260508183817 63 64 2.0 5.0 0.00 0.00 0.00 55 1017.0
20260508183512 63 31 2.0 4.0 0.00 0.00 0.00 55 1017.0
20260508183012 63 40 2.0 4.0 0.00 0.00 0.00 54 1017.1
20260508182512 63 44 1.0 4.0 0.00 0.00 0.00 54 1017.0
20260508182309 63 63 1.0 4.0 0.00 0.00 0.00 54 1017.1
20260508182225 63 28 1.0 3.0 0.00 0.00 0.00 54 1017.0
20260508182033 63 31 1.0 4.0 0.00 0.00 0.00 54 1017.1
20260508181512 63 19 1.0 4.0 0.00 0.00 0.00 53 1017.1
20260508181204 64 11 1.0 4.0 0.00 0.00 0.00 53 1017.0
20260508181034 64 22 1.0 3.0 0.00 0.00 0.00 53 1017.0
20260508180655 64 21 1.0 3.0 0.00 0.00 0.00 53 1017.0
20260508180513 64 26 1.0 4.0 0.00 0.00 0.00 52 1017.1
20260508180344 64 46 2.0 4.0 0.00 0.00 0.00 51 1016.9
20260508180224 64 21 2.0 4.0 0.00 0.00 0.00 52 1016.9
20260508180013 64 29 2.0 4.0 0.00 0.00 0.00 52 1017.0
20260508175512 64 27 2.0 4.0 0.00 0.00 0.00 51 1016.9
20260508175203 64 57 2.0 4.0 0.00 0.00 0.00 51 1016.9
20260508175012 64 27 2.0 5.0 0.00 0.00 0.00 51 1017.0
20260508174822 64 32 2.0 7.0 0.00 0.00 0.00 50 1016.9
20260508174729 64 25 2.0 7.0 0.00 0.00 0.00 50 1016.8
20260508174512 64 25 2.0 7.0 0.00 0.00 0.00 50 1016.9
20260508174012 64 28 2.0 7.0 0.00 0.00 0.00 50 1016.9
20260508173640 64 19 2.0 5.0 0.00 0.00 0.00 50 1016.9
20260508173512 64 38 2.0 5.0 0.00 0.00 0.00 50 1016.8
20260508173324 65 38 3.0 7.0 0.00 0.00 0.00 49 1016.8
20260508173202 65 26 3.0 7.0 0.00 0.00 0.00 49 1016.8
20260508173033 65 40 3.0 7.0 0.00 0.00 0.00 49 1016.8
20260508172512 65 40 3.0 7.0 0.00 0.00 0.00 49 1016.8
20260508172135 65 32 2.0 6.0 0.00 0.00 0.00 48 1016.6
20260508172012 65 35 2.0 5.0 0.00 0.00 0.00 48 1016.7
20260508171641 65 18 1.0 5.0 0.00 0.00 0.00 48 1016.7
20260508171512 66 29 1.0 5.0 0.00 0.00 0.00 47 1016.7
20260508171150 66 19 1.0 5.0 0.00 0.00 0.00 45 1016.6
20260508171014 66 25 2.0 5.0 0.00 0.00 0.00 45 1016.6
20260508170640 66 80 2.0 5.0 0.00 0.00 0.00 43 1016.6
20260508170533 66 16 2.0 5.0 0.00 0.00 0.00 43 1016.5
20260508170137 66 53 2.0 5.0 0.00 0.00 0.00 43 1016.5
20260508170014 66 21 2.0 6.0 0.00 0.00 0.00 44 1016.5
20260508165640 66 73 2.0 6.0 0.00 0.00 0.00 42 1016.4
20260508165512 66 36 2.0 6.0 0.00 0.00 0.00 43 1016.4
20260508165132 66 28 2.0 6.0 0.00 0.00 0.00 42 1016.4
20260508165012 66 40 2.0 5.0 0.00 0.00 0.00 43 1016.4
20260508164637 66 76 1.0 5.0 0.00 0.00 0.00 42 1016.3
20260508164513 66 41 1.0 5.0 0.00 0.00 0.00 43 1016.4
20260508164135 66 103 0.0 2.0 0.00 0.00 0.00 45 1016.3
20260508164012 66 160 0.0 3.0 0.00 0.00 0.00 44 1016.4
20260508163640 66 242 0.0 3.0 0.00 0.00 0.00 45 1016.3
20260508163512 66 115 0.0 3.0 0.00 0.00 0.00 45 1016.4
20260508163149 65 148 0.0 3.0 0.00 0.00 0.00 43 1016.3
20260508163014 65 91 0.0 2.0 0.00 0.00 0.00 42 1016.4
20260508162637 65 49 0.0 3.0 0.00 0.00 0.00 40 1016.3
20260508162511 65 124 0.0 3.0 0.00 0.00 0.00 41 1016.3
20260508162317 65 98 1.0 3.0 0.00 0.00 0.00 42 1016.3
20260508162156 65 144 0.0 3.0 0.00 0.00 0.00 40 1016.2
20260508162013 65 133 0.0 3.0 0.00 0.00 0.00 40 1016.3
20260508161512 65 145 1.0 3.0 0.00 0.00 0.00 41 1016.3
20260508161140 65 145 1.0 3.0 0.00 0.00 0.00 41 1016.3
20260508161012 65 154 1.0 3.0 0.00 0.00 0.00 41 1016.4
20260508160636 65 145 1.0 2.0 0.00 0.00 0.00 43 1016.4
20260508160511 65 174 1.0 2.0 0.00 0.00 0.00 42 1016.4
20260508160125 65 198 1.0 4.0 0.00 0.00 0.00 44 1016.3
20260508160014 65 69 1.0 8.0 0.00 0.00 0.00 43 1016.4
20260508155719 66 62 2.0 8.0 0.00 0.00 0.00 44 1016.5
20260508155644 66 86 2.0 8.0 0.00 0.00 0.00 44 1016.4
20260508155512 66 41 1.0 8.0 0.00 0.00 0.00 44 1016.4
20260508155012 66 25 2.0 7.0 0.00 0.00 0.00 45 1016.4
20260508154617 66 10 3.0 6.0 0.00 0.00 0.00 47 1016.3
20260508154511 66 24 3.0 6.0 0.00 0.00 0.00 46 1016.4
20260508154121 66 18 2.0 6.0 0.00 0.00 0.00 47 1016.5
20260508154013 66 26 2.0 6.0 0.00 0.00 0.00 48 1016.6
20260508153953 65 34 1.0 3.0 0.00 0.00 0.00 47 1016.7
20260508153945 65 11 1.0 4.0 0.00 0.00 0.00 47 1016.7
20260508153728 65 76 1.0 6.0 0.00 0.00 0.00 48 1016.5
20260508153512 65 17 1.0 5.0 0.00 0.00 0.00 49 1016.6
20260508153149 65 15 2.0 5.0 0.00 0.00 0.00 47 1016.7
20260508153012 65 26 1.0 5.0 0.00 0.00 0.00 47 1016.6
20260508152512 65 64 1.0 3.0 0.00 0.00 0.00 48 1016.7
20260508152012 65 90 1.0 3.0 0.00 0.00 0.00 46 1016.8
20260508151621 65 28 1.0 4.0 0.00 0.00 0.00 47 1016.7
20260508151512 65 66 1.0 4.0 0.00 0.00 0.00 48 1016.8
20260508151145 65 140 1.0 4.0 0.00 0.00 0.00 47 1016.8
20260508151014 65 88 1.0 4.0 0.00 0.00 0.00 47 1016.8
20260508150624 65 13 1.0 4.0 0.00 0.00 0.00 48 1016.8
20260508150533 65 101 1.0 4.0 0.00 0.00 0.00 48 1016.8
20260508150122 65 61 1.0 5.0 0.00 0.00 0.00 48 1016.8
20260508150012 65 139 1.0 5.0 0.00 0.00 0.00 48 1016.8
20260508145625 65 74 1.0 5.0 0.00 0.00 0.00 48 1016.9
20260508145533 65 184 1.0 5.0 0.00 0.00 0.00 49 1016.9
20260508145118 65 160 1.0 5.0 0.00 0.00 0.00 48 1016.8
20260508145033 64 185 1.0 5.0 0.00 0.00 0.00 48 1016.8
20260508144612 64 222 1.0 5.0 0.00 0.00 0.00 48 1016.9
20260508144511 64 168 1.0 5.0 0.00 0.00 0.00 48 1016.9
20260508144354 64 173 1.0 5.0 0.00 0.00 0.00 48 1016.9
20260508144108 64 173 1.0 5.0 0.00 0.00 0.00 48 1016.9
20260508144034 64 78 1.0 4.0 0.00 0.00 0.00 48 1016.9
20260508143611 64 110 1.0 4.0 0.00 0.00 0.00 48 1016.8
20260508143513 64 45 2.0 4.0 0.00 0.00 0.00 48 1016.9
20260508143121 64 59 2.0 7.0 0.00 0.00 0.00 46 1016.9
20260508143016 64 30 2.0 7.0 0.00 0.00 0.00 47 1016.9
20260508142930 64 50 1.0 6.0 0.00 0.00 0.00 48 1017.0
20260508142657 64 42 2.0 7.0 0.00 0.00 0.00 47 1017.0
20260508142512 64 26 2.0 7.0 0.00 0.00 0.00 47 1017.0
20260508142015 64 38 1.0 6.0 0.00 0.00 0.00 48 1017.0
20260508141626 64 57 2.0 7.0 0.00 0.00 0.00 49 1017.2
20260508141512 64 30 2.0 7.0 0.00 0.00 0.00 49 1017.0
20260508141103 64 28 3.0 7.0 0.00 0.00 0.00 49 1016.9
20260508141012 64 26 3.0 7.0 0.00 0.00 0.00 49 1017.1
20260508140601 64 80 2.0 7.0 0.00 0.00 0.00 49 1017.1
20260508140512 64 30 2.0 7.0 0.00 0.00 0.00 49 1017.1
20260508140113 64 355 1.0 5.0 0.00 0.00 0.00 49 1017.0
20260508140013 64 44 1.0 5.0 0.00 0.00 0.00 49 1017.0
20260508135553 64 51 2.0 5.0 0.00 0.00 0.00 49 1017.0
20260508135511 64 31 2.0 5.0 0.00 0.00 0.00 49 1017.1
20260508135057 64 49 3.0 8.0 0.00 0.00 0.00 50 1017.1
20260508135012 64 23 2.0 8.0 0.00 0.00 0.00 50 1017.1
20260508134552 64 14 2.0 8.0 0.00 0.00 0.00 50 1017.0
20260508134512 64 28 2.0 8.0 0.00 0.00 0.00 50 1017.1
20260508134057 64 5 1.0 3.0 0.00 0.00 0.00 51 1017.0
20260508134012 64 107 0.0 3.0 0.00 0.00 0.00 51 1017.1
20260508133910 64 182 2.0 9.0 0.00 0.00 0.00 53 1017.1
20260508133658 64 98 1.0 4.0 0.00 0.00 0.00 51 1017.1
20260508133512 64 161 1.0 4.0 0.00 0.00 0.00 51 1017.1
20260508133013 64 60 2.0 9.0 0.00 0.00 0.00 52 1017.1
20260508132544 65 18 2.0 9.0 0.00 0.00 0.00 53 1017.1
20260508132511 64 32 2.0 9.0 0.00 0.00 0.00 52 1017.1
20260508132049 65 30 2.0 8.0 0.00 0.00 0.00 53 1017.1
20260508132012 64 26 2.0 8.0 0.00 0.00 0.00 53 1017.1
20260508131544 65 9 2.0 7.0 0.00 0.00 0.00 52 1017.1
20260508131511 65 33 2.0 5.0 0.00 0.00 0.00 52 1017.1
20260508131043 65 17 1.0 5.0 0.00 0.00 0.00 52 1017.1
20260508131015 65 45 1.0 5.0 0.00 0.00 0.00 52 1017.2
20260508130540 65 92 1.0 4.0 0.00 0.00 0.00 53 1017.0
20260508130513 64 44 1.0 4.0 0.00 0.00 0.00 53 1017.1
20260508130105 65 46 2.0 5.0 0.00 0.00 0.00 51 1017.0
20260508130033 64 37 2.0 5.0 0.00 0.00 0.00 51 1017.0
20260508125542 65 11 2.0 6.0 0.00 0.00 0.00 52 1017.1
20260508125512 64 38 3.0 6.0 0.00 0.00 0.00 53 1017.1
20260508125103 64 30 3.0 8.0 0.00 0.00 0.00 53 1017.1
20260508125012 64 34 2.0 8.0 0.00 0.00 0.00 53 1017.1
20260508124728 64 64 2.0 6.0 0.00 0.00 0.00 54 1017.1
20260508124620 64 44 3.0 8.0 0.00 0.00 0.00 53 1017.1
20260508124511 64 33 2.0 8.0 0.00 0.00 0.00 54 1017.2
20260508124012 64 40 2.0 6.0 0.00 0.00 0.00 54 1017.2
20260508123537 64 52 1.0 5.0 0.00 0.00 0.00 53 1017.1
20260508123512 64 60 1.0 5.0 0.00 0.00 0.00 53 1017.2
20260508123045 64 132 1.0 4.0 0.00 0.00 0.00 53 1017.2
20260508123012 64 122 1.0 4.0 0.00 0.00 0.00 53 1017.2
20260508122540 64 212 1.0 3.0 0.00 0.00 0.00 52 1017.1
20260508122512 64 86 1.0 3.0 0.00 0.00 0.00 52 1017.2
20260508122044 64 111 1.0 3.0 0.00 0.00 0.00 52 1017.1
20260508122015 64 50 1.0 3.0 0.00 0.00 0.00 52 1017.1
20260508121950 64 108 1.0 2.0 0.00 0.00 0.00 53 1017.1
20260508121720 64 29 1.0 3.0 0.00 0.00 0.00 53 1017.1
20260508121511 64 63 1.0 3.0 0.00 0.00 0.00 52 1017.2
20260508121012 64 130 1.0 2.0 0.00 0.00 0.00 53 1017.1
20260508120532 64 175 1.0 3.0 0.00 0.00 0.00 53 1017.1
20260508120529 64 124 1.0 4.0 0.00 0.00 0.00 53 1017.1
20260508120044 64 55 1.0 4.0 0.00 0.00 0.00 54 1017.0
20260508120014 64 169 1.0 4.0 0.00 0.00 0.00 54 1017.0
20260508115748 64 116 1.0 5.0 0.00 0.00 0.00 53 1017.0
20260508115532 64 157 1.0 5.0 0.00 0.00 0.00 53 1017.1
20260508115023 64 157 1.0 5.0 0.00 0.00 0.00 49 1017.0
20260508115012 64 159 1.0 5.0 0.00 0.00 0.00 49 1017.1
20260508114533 65 101 1.0 5.0 0.00 0.00 0.00 49 1017.0
20260508114524 65 186 1.0 5.0 0.00 0.00 0.00 50 1017.0
20260508114258 65 84 1.0 3.0 0.00 0.00 0.00 53 1017.0
20260508114028 65 84 1.0 3.0 0.00 0.00 0.00 53 1017.0
20260508114012 65 57 1.0 3.0 0.00 0.00 0.00 53 1017.0
20260508113517 64 163 1.0 4.0 0.00 0.00 0.00 52 1017.0
20260508113511 64 171 1.0 4.0 0.00 0.00 0.00 52 1017.1
20260508113053 65 196 2.0 6.0 0.00 0.00 0.00 52 1017.1
20260508113035 65 160 1.0 5.0 0.00 0.00 0.00 52 1017.1
20260508113013 64 178 1.0 5.0 0.00 0.00 0.00 51 1017.1
20260508112533 65 74 2.0 5.0 0.00 0.00 0.00 52 1017.2
20260508112012 65 39 3.0 7.0 0.00 0.00 0.00 52 1017.1
20260508112009 65 11 3.0 8.0 0.00 0.00 0.00 52 1017.0
20260508111512 65 37 3.0 8.0 0.00 0.00 0.00 53 1017.1
20260508111017 65 24 2.0 9.0 0.00 0.00 0.00 54 1017.1
20260508111012 66 28 2.0 9.0 0.00 0.00 0.00 54 1017.2
20260508110512 66 44 2.0 9.0 0.00 0.00 0.00 54 1017.2
20260508110019 65 169 2.0 6.0 0.00 0.00 0.00 54 1017.1
20260508110013 65 51 2.0 6.0 0.00 0.00 0.00 54 1017.2
20260508105512 65 28 3.0 7.0 0.00 0.00 0.00 57 1017.2
20260508105509 65 55 3.0 7.0 0.00 0.00 0.00 57 1017.2
20260508105040 65 9 2.0 7.0 0.00 0.00 0.00 57 1017.2
20260508105012 64 28 3.0 7.0 0.00 0.00 0.00 58 1017.2
20260508105009 64 12 3.0 7.0 0.00 0.00 0.00 58 1017.2
20260508104533 65 28 3.0 7.0 0.00 0.00 0.00 57 1017.2
20260508104128 64 19 2.0 8.0 0.00 0.00 0.00 60 1017.3
20260508104019 65 27 2.0 8.0 0.00 0.00 0.00 59 1017.2
20260508104012 64 22 2.0 8.0 0.00 0.00 0.00 59 1017.3
20260508103533 64 23 2.0 8.0 0.00 0.00 0.00 60 1017.3
20260508103012 64 26 3.0 8.0 0.00 0.00 0.00 59 1017.3
20260508103004 64 185 3.0 8.0 0.00 0.00 0.00 59 1017.2
20260508102909 63 57 2.0 5.0 0.00 0.00 0.00 62 1017.3
20260508102615 64 13 2.0 8.0 0.00 0.00 0.00 60 1017.3
20260508102532 64 24 3.0 8.0 0.00 0.00 0.00 59 1017.3
20260508102012 63 126 2.0 5.0 0.00 0.00 0.00 62 1017.3
20260508102009 63 57 2.0 5.0 0.00 0.00 0.00 62 1017.3
20260508101513 62 122 1.0 5.0 0.00 0.00 0.00 63 1017.4
20260508101454 62 347 1.0 5.0 0.00 0.00 0.00 62 1017.3
20260508101051 62 63 3.0 8.0 0.00 0.00 0.00 63 1017.4
20260508101012 62 47 2.0 6.0 0.00 0.00 0.00 62 1017.5
20260508101003 62 124 2.0 6.0 0.00 0.00 0.00 62 1017.4
20260508100511 62 27 3.0 8.0 0.00 0.00 0.00 63 1017.4
20260508100033 62 22 3.0 8.0 0.00 0.00 0.00 65 1017.4
20260508095951 62 12 3.0 8.0 0.00 0.00 0.00 64 1017.4
20260508095512 62 29 3.0 8.0 0.00 0.00 0.00 62 1017.4
20260508095444 62 13 3.0 8.0 0.00 0.00 0.00 62 1017.4
20260508095210 62 130 1.0 4.0 0.00 0.00 0.00 64 1017.4
20260508095012 62 43 2.0 8.0 0.00 0.00 0.00 63 1017.4
20260508094942 62 30 2.0 8.0 0.00 0.00 0.00 62 1017.3
20260508094511 62 48 1.0 4.0 0.00 0.00 0.00 64 1017.4
20260508094013 62 71 2.0 4.0 0.00 0.00 0.00 64 1017.4
20260508093947 62 15 2.0 4.0 0.00 0.00 0.00 64 1017.4
20260508093511 61 157 1.0 6.0 0.00 0.00 0.00 66 1017.4
20260508093430 61 11 1.0 6.0 0.00 0.00 0.00 66 1017.4
20260508093013 61 127 1.0 6.0 0.00 0.00 0.00 65 1017.4
20260508092933 61 167 1.0 6.0 0.00 0.00 0.00 65 1017.4
20260508092511 61 42 1.0 4.0 0.00 0.00 0.00 66 1017.4
20260508092458 60 5 1.0 5.0 0.00 0.00 0.00 66 1017.3
20260508092440 61 18 1.0 4.0 0.00 0.00 0.00 66 1017.4
20260508092012 60 53 1.0 4.0 0.00 0.00 0.00 67 1017.3
20260508091512 61 36 2.0 5.0 0.00 0.00 0.00 66 1017.3
20260508091426 61 154 2.0 5.0 0.00 0.00 0.00 66 1017.3
20260508091012 60 29 2.0 5.0 0.00 0.00 0.00 67 1017.4
20260508090932 60 32 2.0 5.0 0.00 0.00 0.00 67 1017.4
20260508090532 60 46 1.0 4.0 0.00 0.00 0.00 68 1017.4
20260508090424 60 53 1.0 4.0 0.00 0.00 0.00 68 1017.4
20260508090012 60 100 1.0 4.0 0.00 0.00 0.00 67 1017.4
20260508085927 60 46 1.0 4.0 0.00 0.00 0.00 67 1017.5
20260508085512 60 160 1.0 6.0 0.00 0.00 0.00 68 1017.4
20260508085428 60 182 1.0 6.0 0.00 0.00 0.00 68 1017.4
20260508085012 59 133 2.0 6.0 0.00 0.00 0.00 68 1017.5
20260508084916 59 27 2.0 6.0 0.00 0.00 0.00 69 1017.4
20260508084533 59 51 2.0 8.0 0.00 0.00 0.00 68 1017.4
20260508084422 59 80 2.0 8.0 0.00 0.00 0.00 69 1017.4
20260508084011 59 28 3.0 8.0 0.00 0.00 0.00 69 1017.4
20260508083916 59 355 3.0 8.0 0.00 0.00 0.00 69 1017.5
20260508083511 59 28 3.0 8.0 0.00 0.00 0.00 70 1017.4
20260508083427 59 22 2.0 8.0 0.00 0.00 0.00 70 1017.4
20260508083011 58 43 2.0 5.0 0.00 0.00 0.00 71 1017.5
20260508082927 58 31 1.0 5.0 0.00 0.00 0.00 72 1017.5
20260508082511 57 52 2.0 4.0 0.00 0.00 0.00 72 1017.4
20260508082429 57 87 2.0 6.0 0.00 0.00 0.00 72 1017.3
20260508082012 57 54 1.0 6.0 0.00 0.00 0.00 73 1017.3
20260508081925 57 67 1.0 6.0 0.00 0.00 0.00 74 1017.3
20260508081511 56 61 1.0 6.0 0.00 0.00 0.00 76 1017.3
20260508081427 56 46 1.0 4.0 0.00 0.00 0.00 76 1017.3
20260508081012 56 70 1.0 4.0 0.00 0.00 0.00 76 1017.3
20260508080907 55 103 1.0 4.0 0.00 0.00 0.00 77 1017.3
20260508080511 55 46 2.0 4.0 0.00 0.00 0.00 77 1017.3
20260508080409 55 108 2.0 4.0 0.00 0.00 0.00 77 1017.3
20260508080034 55 31 2.0 4.0 0.00 0.00 0.00 77 1017.3
20260508075908 55 55 2.0 4.0 0.00 0.00 0.00 77 1017.2
20260508075513 54 27 2.0 5.0 0.00 0.00 0.00 78 1017.3
20260508075415 54 17 2.0 5.0 0.00 0.00 0.00 78 1017.3
20260508075012 54 28 2.0 5.0 0.00 0.00 0.00 78 1017.2
20260508074929 54 15 2.0 7.0 0.00 0.00 0.00 78 1017.2
20260508074511 54 34 2.0 7.0 0.00 0.00 0.00 79 1017.2
20260508074423 54 11 2.0 7.0 0.00 0.00 0.00 79 1017.2
20260508074217 54 88 1.0 3.0 0.00 0.00 0.00 79 1017.2
20260508074012 54 43 1.0 7.0 0.00 0.00 0.00 79 1017.3
20260508073511 54 46 1.0 3.0 0.00 0.00 0.00 79 1017.3
20260508073011 54 58 1.0 3.0 0.00 0.00 0.00 80 1017.2
20260508072922 53 13 1.0 3.0 0.00 0.00 0.00 80 1017.2
20260508072511 53 49 1.0 4.0 0.00 0.00 0.00 80 1017.1
20260508072411 53 65 1.0 4.0 0.00 0.00 0.00 80 1017.1
20260508072011 53 41 1.0 4.0 0.00 0.00 0.00 80 1017.2
20260508071907 53 88 1.0 4.0 0.00 0.00 0.00 80 1017.2
20260508071513 53 49 1.0 4.0 0.00 0.00 0.00 80 1017.2
20260508071447 52 24 1.0 4.0 0.00 0.00 0.00 81 1017.1
20260508071438 53 77 1.0 3.0 0.00 0.00 0.00 81 1017.0
20260508071413 53 22 1.0 4.0 0.00 0.00 0.00 81 1017.1
20260508071012 53 63 1.0 3.0 0.00 0.00 0.00 81 1017.1
20260508070532 53 60 1.0 3.0 0.00 0.00 0.00 81 1017.2
20260508070433 53 53 1.0 3.0 0.00 0.00 0.00 81 1017.1
20260508070012 52 49 1.0 4.0 0.00 0.00 0.00 81 1017.2
20260508065511 52 45 1.0 4.0 0.00 0.00 0.00 81 1017.1
20260508065413 52 54 1.0 4.0 0.00 0.00 0.00 81 1017.0
20260508065012 52 52 1.0 5.0 0.00 0.00 0.00 81 1017.0
20260508064920 52 22 1.0 5.0 0.00 0.00 0.00 81 1017.1
20260508064511 52 60 1.0 5.0 0.00 0.00 0.00 81 1017.0
20260508064411 52 51 1.0 5.0 0.00 0.00 0.00 81 1017.0
20260508064011 52 60 1.0 5.0 0.00 0.00 0.00 81 1017.0
20260508063917 52 50 1.0 5.0 0.00 0.00 0.00 81 1017.0
20260508063532 52 55 1.0 5.0 0.00 0.00 0.00 81 1017.0
20260508063409 52 69 1.0 5.0 0.00 0.00 0.00 81 1017.0
20260508063012 52 55 1.0 4.0 0.00 0.00 0.00 81 1017.0
20260508062910 52 49 1.0 4.0 0.00 0.00 0.00 81 1016.9
20260508062533 52 50 0.0 4.0 0.00 0.00 0.00 81 1017.0
20260508062406 52 51 1.0 4.0 0.00 0.00 0.00 81 1016.9
20260508062011 52 53 0.0 3.0 0.00 0.00 0.00 81 1016.9
20260508061937 52 78 0.0 4.0 0.00 0.00 0.00 81 1016.8
20260508061905 52 46 0.0 2.0 0.00 0.00 0.00 81 1016.9
20260508061511 52 72 0.0 2.0 0.00 0.00 0.00 81 1016.9
20260508061012 52 45 1.0 4.0 0.00 0.00 0.00 81 1016.8
20260508060858 52 78 1.0 4.0 0.00 0.00 0.00 81 1016.7
20260508060532 52 44 1.0 4.0 0.00 0.00 0.00 82 1016.9
20260508060346 52 17 1.0 3.0 0.00 0.00 0.00 82 1016.8
20260508060012 52 49 1.0 3.0 0.00 0.00 0.00 82 1016.8
20260508055835 52 79 1.0 3.0 0.00 0.00 0.00 82 1016.8
20260508055511 52 70 1.0 3.0 0.00 0.00 0.00 82 1016.8
20260508055337 52 22 1.0 3.0 0.00 0.00 0.00 82 1016.8
20260508055013 52 90 1.0 3.0 0.00 0.00 0.00 82 1016.9
20260508054847 52 163 1.0 4.0 0.00 0.00 0.00 82 1016.8
20260508054828 51 74 1.0 4.0 0.00 0.00 0.00 82 1016.8
20260508054511 52 54 1.0 4.0 0.00 0.00 0.00 82 1016.8
20260508054117 51 35 0.0 3.0 0.00 0.00 0.00 82 1016.8
20260508054012 52 39 0.0 4.0 0.00 0.00 0.00 82 1016.8
20260508053900 51 22 0.0 4.0 0.00 0.00 0.00 82 1016.7